Location: Brno
(49.2000°N, 16.6330°E)
Time: 04:09:36
(UTC+02:00)

Cosmos 332 Rocket - Visible Passes

Search period start: 29 May 2017 00:00
Search period end: 08 June 2017 00:00
Orbit: 683 x 704 km, 74.0° (Epoch: 27 May)

Date Brightness Start Highest point End Pass type
(mag) Time Alt. Az. Time Alt. Az. Time Alt. Az.
29 May 6.8 01:27:30 10° NNE 01:29:30 12° NE 01:31:30 10° ENE visible
29 May 4.4 03:06:13 10° NNW 03:11:01 61° ENE 03:15:50 10° SE visible
30 May 5.9 02:07:17 10° N 02:11:24 27° NE 02:15:30 10° ESE visible
30 May 4.1 03:47:26 10° NNW 03:52:06 49° WSW 03:56:46 10° S visible
31 May 6.6 01:09:05 10° NNE 01:11:24 13° NE 01:13:43 10° ENE visible
31 May 4.2 02:48:00 10° NNW 02:52:51 67° ENE 02:57:40 10° SSE visible
01 Jun 5.7 01:49:02 10° N 01:53:15 29° NE 01:57:28 10° ESE visible
01 Jun 4.2 03:29:17 10° NW 03:33:53 44° WSW 03:38:29 10° S visible
02 Jun 6.5 00:50:42 10° NNE 00:53:18 14° NE 00:55:53 10° ENE visible
02 Jun 4.0 02:29:48 10° NNW 02:34:40 73° ENE 02:39:31 10° SSE visible
02 Jun 5.5 04:11:35 10° WNW 04:14:31 16° W 04:17:28 10° SW visible
03 Jun 5.5 01:30:47 10° N 01:35:06 31° NE 01:39:25 10° ESE visible
03 Jun 4.3 03:11:08 10° NW 03:15:40 40° WSW 03:19:44 12° S visible
04 Jun 6.4 00:32:21 10° N 00:35:11 15° NE 00:38:01 10° E visible
04 Jun 3.9 02:11:35 10° NNW 02:16:28 80° ENE 02:20:42 14° SSE visible
04 Jun 5.6 03:53:37 10° WNW 03:56:16 15° W 03:58:54 10° SW visible
05 Jun 5.3 01:12:32 10° N 01:16:57 33° ENE 01:21:21 10° ESE visible
05 Jun 4.5 02:52:59 10° NW 02:57:26 37° WSW 03:00:27 18° SSW visible
06 Jun 6.3 00:14:00 10° N 00:17:04 16° NE 00:20:07 10° E visible
06 Jun 3.8 01:53:23 10° NNW 01:58:17 87° ENE 02:01:38 20° SSE visible
06 Jun 5.7 03:35:43 10° WNW 03:37:59 13° W 03:40:17 10° WSW visible
07 Jun 5.1 00:54:17 10° N 00:58:47 36° ENE 01:02:52 12° ESE visible
07 Jun 4.6 02:34:51 10° NW 02:39:13 34° WSW 02:41:32 22° SSW visible
